• In Deutschland
  • Länderverzeichnis
  • Für 7 Tage
  • Wassertemperatur
  • Satellitenkarten
  • Wetterkarte
  • Widgets
  • user-avatar
    Anmelden

    Stündliche Wetter Kreta

    Heute, 14 August, Dienstag

    Zeit Temperatur Niederschläge Wind Luftdruck Luftfeuchtigkeit
    00:00 +21°C° 0 mm 5 m/S 707 mmHg 63%
    01:00 +21°C° 0 mm 5 m/S 706 mmHg 64%
    02:00 +21°C° 0 mm 5 m/S 706 mmHg 64%
    03:00 +20°C° 0 mm 5 m/S 706 mmHg 64%
    04:00 +20°C° 0 mm 5 m/S 706 mmHg 64%
    05:00 +20°C° 0 mm 5 m/S 706 mmHg 65%
    06:00 +21°C° 0 mm 5 m/S 706 mmHg 60%
    07:00 +23°C° 0 mm 5 m/S 706 mmHg 54%
    08:00 +25°C° 0 mm 5 m/S 706 mmHg 49%
    09:00 +26°C° 0 mm 5 m/S 707 mmHg 46%
    10:00 +27°C° 0 mm 4 m/S 707 mmHg 42%
    11:00 +29°C° 0 mm 4 m/S 707 mmHg 39%
    12:00 +29°C° 0 mm 4 m/S 707 mmHg 37%
    13:00 +30°C° 0 mm 5 m/S 707 mmHg 36%
    14:00 +30°C° 0 mm 5 m/S 707 mmHg 34%
    15:00 +30°C° 0 mm 5 m/S 707 mmHg 35%
    16:00 +30°C° 0 mm 5 m/S 707 mmHg 35%
    17:00 +29°C° 0 mm 5 m/S 707 mmHg 35%
    18:00 +28°C° 0 mm 5 m/S 706 mmHg 40%
    19:00 +26°C° 0 mm 5 m/S 706 mmHg 45%
    20:00 +23°C° 0 mm 5 m/S 706 mmHg 50%
    21:00 +23°C° 0 mm 5 m/S 706 mmHg 52%
    22:00 +22°C° 0 mm 5 m/S 706 mmHg 55%
    23:00 +22°C° 0 mm 5 m/S 706 mmHg 57%

    Morgen, 15 August, Mittwoch

    Zeit Temperatur Niederschläge Wind Luftdruck Luftfeuchtigkeit
    00:00 +22°C° 0 mm 4 m/S 706 mmHg 56%
    01:00 +22°C° 0 mm 4 m/S 706 mmHg 54%
    02:00 +21°C° 0 mm 4 m/S 706 mmHg 53%
    03:00 +21°C° 0 mm 4 m/S 705 mmHg 56%
    04:00 +21°C° 0 mm 4 m/S 705 mmHg 58%
    05:00 +21°C° 0 mm 4 m/S 705 mmHg 61%
    06:00 +22°C° 0 mm 4 m/S 705 mmHg 57%
    07:00 +25°C° 0 mm 4 m/S 705 mmHg 53%
    08:00 +26°C° 0 mm 4 m/S 706 mmHg 50%
    09:00 +28°C° 0 mm 4 m/S 706 mmHg 44%
    10:00 +29°C° 0 mm 4 m/S 706 mmHg 39%
    11:00 +30°C° 0 mm 4 m/S 706 mmHg 34%
    12:00 +32°C° 0 mm 4 m/S 706 mmHg 33%
    13:00 +32°C° 0 mm 4 m/S 706 mmHg 31%
    14:00 +33°C° 0 mm 5 m/S 706 mmHg 30%
    15:00 +32°C° 0 mm 5 m/S 706 mmHg 30%
    16:00 +32°C° 0 mm 5 m/S 706 mmHg 30%
    17:00 +32°C° 0 mm 5 m/S 706 mmHg 30%
    18:00 +29°C° 0 mm 4 m/S 706 mmHg 34%
    19:00 +28°C° 0 mm 4 m/S 706 mmHg 38%
    20:00 +26°C° 0 mm 4 m/S 706 mmHg 42%
    21:00 +26°C° 0 mm 4 m/S 706 mmHg 44%
    22:00 +25°C° 0 mm 4 m/S 706 mmHg 46%
    23:00 +25°C° 0 mm 4 m/S 707 mmHg 48%

    übermorgen, 16 August, Donnerstag

    Zeit Temperatur Niederschläge Wind Luftdruck Luftfeuchtigkeit
    00:00 +25°C° 0 mm 4 m/S 706 mmHg 48%
    01:00 +23°C° 0 mm 4 m/S 706 mmHg 49%
    02:00 +24°C° 0 mm 3 m/S 706 mmHg 49%
    03:00 +23°C° 0 mm 4 m/S 706 mmHg 48%
    04:00 +23°C° 0 mm 4 m/S 706 mmHg 46%
    05:00 +23°C° 0 mm 4 m/S 705 mmHg 44%
    06:00 +25°C° 0 mm 4 m/S 706 mmHg 44%
    07:00 +26°C° 0 mm 4 m/S 706 mmHg 44%
    08:00 +27°C° 0 mm 4 m/S 706 mmHg 44%
    09:00 +28°C° 0 mm 4 m/S 707 mmHg 43%
    10:00 +29°C° 0 mm 4 m/S 707 mmHg 43%
    11:00 +30°C° 0 mm 4 m/S 707 mmHg 42%
    12:00 +30°C° 0 mm 4 m/S 707 mmHg 42%
    13:00 +32°C° 0 mm 4 m/S 707 mmHg 41%
    14:00 +32°C° 0 mm 5 m/S 707 mmHg 40%
    15:00 +32°C° 0 mm 5 m/S 707 mmHg 41%
    16:00 +30°C° 0 mm 5 m/S 707 mmHg 41%
    17:00 +30°C° 0 mm 5 m/S 707 mmHg 42%
    18:00 +29°C° 0 mm 4 m/S 707 mmHg 44%
    19:00 +28°C° 0 mm 4 m/S 707 mmHg 46%
    20:00 +26°C° 0 mm 3 m/S 707 mmHg 48%
    21:00 +26°C° 0 mm 3 m/S 707 mmHg 49%
    22:00 +25°C° 0 mm 3 m/S 707 mmHg 49%
    23:00 +25°C° 0 mm 3 m/S 707 mmHg 49%

    17 August, Freitag

    Zeit Temperatur Niederschläge Wind Luftdruck Luftfeuchtigkeit
    00:00 +25°C° 0 mm 3 m/S 707 mmHg 49%
    01:00 +24°C° 0 mm 3 m/S 707 mmHg 49%
    02:00 +24°C° 0 mm 3 m/S 707 mmHg 49%
    03:00 +24°C° 0 mm 3 m/S 707 mmHg 49%
    04:00 +22°C° 0 mm 3 m/S 706 mmHg 49%
    05:00 +22°C° 0 mm 4 m/S 706 mmHg 49%
    06:00 +24°C° 0 mm 3 m/S 707 mmHg 47%
    07:00 +25°C° 0 mm 3 m/S 707 mmHg 45%
    08:00 +26°C° 0 mm 3 m/S 707 mmHg 42%
    09:00 +27°C° 0 mm 3 m/S 707 mmHg 41%
    10:00 +28°C° 0 mm 3 m/S 708 mmHg 39%
    11:00 +29°C° 0 mm 3 m/S 708 mmHg 38%
    12:00 +30°C° 0 mm 4 m/S 708 mmHg 37%
    13:00 +32°C° 0 mm 4 m/S 708 mmHg 37%
    14:00 +32°C° 0 mm 5 m/S 708 mmHg 36%
    15:00 +32°C° 0 mm 5 m/S 708 mmHg 36%
    16:00 +32°C° 0 mm 5 m/S 708 mmHg 36%
    17:00 +30°C° 0 mm 5 m/S 708 mmHg 36%
    18:00 +29°C° 0 mm 4 m/S 707 mmHg 38%
    19:00 +28°C° 0 mm 4 m/S 707 mmHg 40%
    20:00 +26°C° 0 mm 4 m/S 707 mmHg 42%
    21:00 +26°C° 0 mm 4 m/S 707 mmHg 45%
    22:00 +25°C° 0 mm 4 m/S 707 mmHg 47%
    23:00 +25°C° 0 mm 4 m/S 707 mmHg 49%

    18 August, Samstag

    Zeit Temperatur Niederschläge Wind Luftdruck Luftfeuchtigkeit
    00:00 +25°C° 0 mm 4 m/S 707 mmHg 49%
    01:00 +23°C° 0 mm 4 m/S 707 mmHg 49%
    02:00 +23°C° 0 mm 5 m/S 706 mmHg 50%
    03:00 +23°C° 0 mm 5 m/S 706 mmHg 50%
    04:00 +23°C° 0 mm 5 m/S 706 mmHg 50%
    05:00 +22°C° 0 mm 5 m/S 706 mmHg 50%
    06:00 +25°C° 0 mm 5 m/S 706 mmHg 46%
    07:00 +26°C° 0 mm 5 m/S 707 mmHg 42%
    08:00 +28°C° 0 mm 5 m/S 707 mmHg 38%
    09:00 +29°C° 0 mm 5 m/S 707 mmHg 35%
    10:00 +30°C° 0 mm 5 m/S 707 mmHg 33%
    11:00 +33°C° 0 mm 5 m/S 707 mmHg 30%
    12:00 +33°C° 0 mm 5 m/S 707 mmHg 29%
    13:00 +33°C° 0 mm 5 m/S 707 mmHg 28%
    14:00 +34°C° 0 mm 6 m/S 707 mmHg 28%
    15:00 +33°C° 0 mm 6 m/S 707 mmHg 28%
    16:00 +33°C° 0 mm 6 m/S 706 mmHg 29%
    17:00 +32°C° 0 mm 6 m/S 706 mmHg 30%
    18:00 +30°C° 0 mm 6 m/S 706 mmHg 35%
    19:00 +28°C° 0 mm 5 m/S 706 mmHg 40%
    20:00 +27°C° 0 mm 5 m/S 706 mmHg 45%
    21:00 +26°C° 0 mm 5 m/S 706 mmHg 47%
    22:00 +26°C° 0 mm 6 m/S 706 mmHg 48%
    23:00 +24°C° 0 mm 6 m/S 706 mmHg 49%

    19 August, Sonntag

    Zeit Temperatur Niederschläge Wind Luftdruck Luftfeuchtigkeit
    00:00 +24°C° 0 mm 6 m/S 706 mmHg 49%
    01:00 +24°C° 0 mm 6 m/S 705 mmHg 49%
    02:00 +23°C° 0 mm 6 m/S 705 mmHg 49%
    03:00 +23°C° 0 mm 6 m/S 705 mmHg 51%
    04:00 +23°C° 0 mm 6 m/S 705 mmHg 53%
    05:00 +23°C° 0 mm 6 m/S 705 mmHg 55%
    06:00 +26°C° 0 mm 6 m/S 705 mmHg 50%
    07:00 +27°C° 0 mm 7 m/S 705 mmHg 44%
    08:00 +28°C° 0 mm 7 m/S 705 mmHg 39%
    09:00 +30°C° 0 mm 7 m/S 705 mmHg 35%
    10:00 +32°C° 0 mm 8 m/S 705 mmHg 31%
    11:00 +33°C° 0 mm 8 m/S 705 mmHg 28%
    12:00 +33°C° 0 mm 8 m/S 705 mmHg 29%
    13:00 +33°C° 0 mm 8 m/S 705 mmHg 30%
    14:00 +33°C° 0 mm 8 m/S 705 mmHg 31%
    15:00 +32°C° 0 mm 8 m/S 705 mmHg 33%
    16:00 +31°C° 0 mm 8 m/S 705 mmHg 35%
    17:00 +31°C° 0 mm 8 m/S 705 mmHg 38%
    18:00 +28°C° 0 mm 8 m/S 705 mmHg 43%
    19:00 +27°C° 0 mm 7 m/S 705 mmHg 48%
    20:00 +26°C° 0 mm 6 m/S 705 mmHg 53%
    21:00 +24°C° 0 mm 6 m/S 705 mmHg 54%
    22:00 +24°C° 0 mm 6 m/S 704 mmHg 55%
    23:00 +24°C° 0 mm 6 m/S 704 mmHg 56%
    Mehr zeigen